RYR1972 LEVC-GCTS

Flight info

Callsign RYR1972
Flight time 2h 55m
Altitude 37000
Route ASTRO M985 MGA N851 VJF L82 RUNAX UL82 IBALU UN857 TERTO
Aircraft B738/M-SDE3FGILRWY/SB1

Departure

Time 2026-04-27 14:23
Airport Valencia Airport (LEVC)

Arrival

Time 2026-04-27 17:18
Airport Tenerife Sur Airport (GCTS)
Time Latitude Longitude Altitude Speed Heading
2026-04-27 13:53 39.49107 -0.47553 194 ft 0 kts 45°
2026-04-27 14:16 39.49111 -0.47549 194 ft 2 kts 34°
2026-04-27 14:17 39.49136 -0.47556 193 ft 8 kts 319°
2026-04-27 14:17 39.49131 -0.47635 205 ft 9 kts 254°
2026-04-27 14:17 39.49120 -0.47715 199 ft 9 kts 259°
2026-04-27 14:17 39.49079 -0.47778 202 ft 10 kts 237°
2026-04-27 14:18 39.49029 -0.47852 201 ft 12 kts 246°
2026-04-27 14:18 39.49070 -0.47999 207 ft 21 kts 297°
2026-04-27 14:18 39.49137 -0.48169 213 ft 21 kts 297°
2026-04-27 14:18 39.49199 -0.48336 211 ft 20 kts 296°
2026-04-27 14:19 39.49260 -0.48498 217 ft 20 kts 296°
2026-04-27 14:19 39.49318 -0.48655 219 ft 19 kts 297°
2026-04-27 14:19 39.49378 -0.48804 220 ft 18 kts 297°
2026-04-27 14:19 39.49433 -0.48951 222 ft 18 kts 296°
2026-04-27 14:20 39.49489 -0.49093 222 ft 18 kts 296°
2026-04-27 14:20 39.49550 -0.49250 225 ft 20 kts 296°
2026-04-27 14:20 39.49612 -0.49409 227 ft 19 kts 296°
2026-04-27 14:20 39.49670 -0.49563 232 ft 19 kts 295°
2026-04-27 14:21 39.49725 -0.49714 236 ft 18 kts 298°
2026-04-27 14:21 39.49781 -0.49857 240 ft 18 kts 295°
2026-04-27 14:21 39.49773 -0.49968 244 ft 13 kts 212°
2026-04-27 14:21 39.49692 -0.50019 246 ft 13 kts 203°
2026-04-27 14:22 39.49625 -0.49984 244 ft 6 kts 116°
2026-04-27 14:22 39.49624 -0.49982 244 ft 2 kts 116°
2026-04-27 14:22 39.49508 -0.49682 236 ft 74 kts 116°
2026-04-27 14:22 39.49180 -0.48818 218 ft 137 kts 116°
2026-04-27 14:23 39.48725 -0.47519 443 ft 169 kts 115°
2026-04-27 14:23 39.48210 -0.46243 1472 ft 155 kts 116°
2026-04-27 14:23 39.47687 -0.44969 2170 ft 167 kts 117°
2026-04-27 14:23 39.47048 -0.43567 2444 ft 198 kts 129°
2026-04-27 14:24 39.45890 -0.42468 2767 ft 218 kts 150°
2026-04-27 14:24 39.44619 -0.41300 2946 ft 236 kts 123°
2026-04-27 14:24 39.43780 -0.39381 3286 ft 252 kts 119°
2026-04-27 14:24 39.42851 -0.37444 4099 ft 253 kts 122°
2026-04-27 14:25 39.41868 -0.35529 4867 ft 259 kts 123°
2026-04-27 14:25 39.40849 -0.33584 5629 ft 260 kts 124°
2026-04-27 14:25 39.39808 -0.31670 6450 ft 263 kts 131°
2026-04-27 14:25 39.38257 -0.30409 7028 ft 271 kts 167°
2026-04-27 14:26 39.36383 -0.30567 7735 ft 277 kts 200°
2026-04-27 14:26 39.34811 -0.32015 8505 ft 282 kts 224°
2026-04-27 14:26 39.33638 -0.34075 9255 ft 287 kts 237°
2026-04-27 14:26 39.32698 -0.36371 9968 ft 291 kts 240°
2026-04-27 14:27 39.31802 -0.38753 10475 ft 302 kts 244°
2026-04-27 14:27 39.31039 -0.41395 10620 ft 326 kts 251°
2026-04-27 14:27 39.30492 -0.44340 10809 ft 347 kts 259°
2026-04-27 14:27 39.30234 -0.47493 11274 ft 358 kts 266°
2026-04-27 14:28 39.30303 -0.50733 11906 ft 362 kts 274°
2026-04-27 14:28 39.30715 -0.53938 12692 ft 364 kts 282°
2026-04-27 14:28 39.31478 -0.57092 13262 ft 372 kts 290°
2026-04-27 14:28 39.32599 -0.60112 13980 ft 374 kts 299°
2026-04-27 14:29 39.34033 -0.62910 14640 ft 377 kts 307°
2026-04-27 14:29 39.35712 -0.65551 15257 ft 381 kts 304°
2026-04-27 14:29 39.36754 -0.68685 15809 ft 382 kts 277°
2026-04-27 14:29 39.36606 -0.72056 16658 ft 376 kts 252°
2026-04-27 14:30 39.35397 -0.75017 17283 ft 375 kts 227°
2026-04-27 14:30 39.33344 -0.77053 17929 ft 374 kts 207°
2026-04-27 14:30 39.31104 -0.78773 18559 ft 378 kts 217°
2026-04-27 14:30 39.29193 -0.81141 19012 ft 385 kts 228°
2026-04-27 14:31 39.27541 -0.83851 19674 ft 385 kts 232°
2026-04-27 14:31 39.25955 -0.86651 20215 ft 389 kts 232°
2026-04-27 14:31 39.24336 -0.89467 20669 ft 394 kts 232°
2026-04-27 14:31 39.22679 -0.92293 21254 ft 395 kts 232°
2026-04-27 14:32 39.21012 -0.95109 21854 ft 396 kts 232°
2026-04-27 14:32 39.19344 -0.97916 22244 ft 402 kts 232°
2026-04-27 14:32 39.17633 -1.00789 22748 ft 405 kts 232°
2026-04-27 14:32 39.15918 -1.03668 23355 ft 405 kts 232°
2026-04-27 14:33 39.14196 -1.06558 23758 ft 410 kts 232°
2026-04-27 14:33 39.12426 -1.09526 24151 ft 412 kts 232°
2026-04-27 14:33 39.10682 -1.12449 24684 ft 411 kts 233°
2026-04-27 14:33 39.08956 -1.15340 25037 ft 415 kts 233°
2026-04-27 14:34 39.07187 -1.18301 25335 ft 420 kts 233°
2026-04-27 14:34 39.05402 -1.21286 25768 ft 421 kts 233°
2026-04-27 14:34 39.03611 -1.24278 26162 ft 423 kts 233°
2026-04-27 14:34 39.01806 -1.27289 26504 ft 426 kts 233°
2026-04-27 14:35 38.99991 -1.30317 26894 ft 428 kts 233°
2026-04-27 14:35 38.98171 -1.33353 27257 ft 431 kts 233°
2026-04-27 14:35 38.96337 -1.36411 27585 ft 433 kts 233°
2026-04-27 14:35 38.94490 -1.39488 27948 ft 435 kts 233°
2026-04-27 14:36 38.92637 -1.42573 28287 ft 437 kts 233°
2026-04-27 14:36 38.90773 -1.45674 28604 ft 440 kts 233°
2026-04-27 14:36 38.88897 -1.48790 28944 ft 442 kts 233°
2026-04-27 14:36 38.87013 -1.51919 29262 ft 444 kts 233°
2026-04-27 14:37 38.85120 -1.55057 29605 ft 445 kts 233°
2026-04-27 14:37 38.83224 -1.58197 29997 ft 445 kts 233°
2026-04-27 14:37 38.81325 -1.61340 30351 ft 445 kts 233°
2026-04-27 14:37 38.79434 -1.64467 30734 ft 444 kts 233°
2026-04-27 14:38 38.77547 -1.67585 31149 ft 441 kts 233°
2026-04-27 14:38 38.75664 -1.70694 31507 ft 441 kts 233°
2026-04-27 14:38 38.73785 -1.73793 31834 ft 440 kts 233°
2026-04-27 14:38 38.71911 -1.76878 32206 ft 439 kts 233°
2026-04-27 14:39 38.70037 -1.79960 32548 ft 438 kts 233°
2026-04-27 14:39 38.68165 -1.83031 32889 ft 437 kts 233°
2026-04-27 14:39 38.66298 -1.86093 33245 ft 436 kts 233°
2026-04-27 14:39 38.64435 -1.89144 33568 ft 435 kts 233°
2026-04-27 14:40 38.62572 -1.92194 33904 ft 434 kts 233°
2026-04-27 14:40 38.60749 -1.95177 34337 ft 429 kts 233°
2026-04-27 14:40 38.58912 -1.98180 34624 ft 428 kts 233°
2026-04-27 14:40 38.57078 -2.01177 34896 ft 428 kts 233°
2026-04-27 14:41 38.55245 -2.04171 35114 ft 428 kts 233°
2026-04-27 14:41 38.53406 -2.07169 35351 ft 428 kts 233°
2026-04-27 14:41 38.51573 -2.10154 35661 ft 426 kts 233°
2026-04-27 14:41 38.49748 -2.13126 35937 ft 425 kts 233°
2026-04-27 14:42 38.47927 -2.16092 36149 ft 425 kts 233°
2026-04-27 14:42 38.46103 -2.19061 36378 ft 425 kts 233°
2026-04-27 14:42 38.44281 -2.22022 36651 ft 423 kts 233°
2026-04-27 14:42 38.42468 -2.24970 36914 ft 422 kts 233°
2026-04-27 14:43 38.40657 -2.27912 37089 ft 423 kts 233°
2026-04-27 14:43 38.37008 -2.33828 37073 ft 424 kts 232°
2026-04-27 14:44 38.33154 -2.39467 37068 ft 420 kts 227°
2026-04-27 14:44 38.29104 -2.44807 37062 ft 418 kts 227°
2026-04-27 14:45 38.25075 -2.50124 37061 ft 417 kts 227°
2026-04-27 14:45 38.21074 -2.55456 37065 ft 416 kts 227°
2026-04-27 14:46 38.17079 -2.60796 37045 ft 417 kts 227°
2026-04-27 14:46 38.13072 -2.66147 37042 ft 418 kts 227°
2026-04-27 14:47 38.09057 -2.71498 37044 ft 419 kts 227°
2026-04-27 14:47 38.05030 -2.76855 37033 ft 420 kts 227°
2026-04-27 14:48 38.00999 -2.82208 37024 ft 420 kts 227°
2026-04-27 14:48 37.95615 -2.89345 37029 ft 421 kts 227°
2026-04-27 14:49 37.91557 -2.94692 37006 ft 421 kts 227°
2026-04-27 14:49 37.87486 -3.00040 37017 ft 422 kts 226°
2026-04-27 14:50 37.83407 -3.05394 36995 ft 423 kts 226°
2026-04-27 14:50 37.79316 -3.10757 36992 ft 423 kts 226°
2026-04-27 14:51 37.75228 -3.16109 36993 ft 423 kts 226°
2026-04-27 14:51 37.71147 -3.21446 36985 ft 422 kts 226°
2026-04-27 14:52 37.67085 -3.26770 36979 ft 421 kts 226°
2026-04-27 14:52 37.63031 -3.32077 36983 ft 419 kts 226°
2026-04-27 14:53 37.58987 -3.37363 36986 ft 418 kts 226°
2026-04-27 14:53 37.54948 -3.42633 36989 ft 418 kts 226°
2026-04-27 14:54 37.50912 -3.47890 36991 ft 417 kts 226°
2026-04-27 14:54 37.46874 -3.53140 36984 ft 417 kts 226°
2026-04-27 14:55 37.42831 -3.58392 36983 ft 418 kts 226°
2026-04-27 14:55 37.38785 -3.63635 36986 ft 418 kts 226°
2026-04-27 14:56 37.34730 -3.68870 36976 ft 418 kts 226°
2026-04-27 14:56 37.30675 -3.74099 36977 ft 418 kts 226°
2026-04-27 14:57 37.26616 -3.79324 36983 ft 418 kts 226°
2026-04-27 14:57 37.22547 -3.84557 36996 ft 418 kts 226°
2026-04-27 14:58 37.18479 -3.89780 36994 ft 419 kts 226°
2026-04-27 14:58 37.14410 -3.94995 36989 ft 418 kts 226°
2026-04-27 14:59 37.10342 -4.00200 36999 ft 418 kts 226°
2026-04-27 14:59 37.06274 -4.05397 37000 ft 417 kts 226°
2026-04-27 15:00 37.02210 -4.10581 36999 ft 417 kts 226°
2026-04-27 15:00 36.98177 -4.15717 37008 ft 416 kts 226°
2026-04-27 15:01 36.94118 -4.20878 37020 ft 416 kts 226°
2026-04-27 15:01 36.90056 -4.26035 37020 ft 416 kts 226°
2026-04-27 15:02 36.85996 -4.31183 37034 ft 416 kts 226°
2026-04-27 15:02 36.82163 -4.36552 37040 ft 414 kts 236°
2026-04-27 15:03 36.79575 -4.42968 37051 ft 415 kts 249°
2026-04-27 15:03 36.77632 -4.49761 37054 ft 416 kts 249°
2026-04-27 15:04 36.75688 -4.56555 37046 ft 416 kts 249°
2026-04-27 15:04 36.73720 -4.63337 37050 ft 417 kts 249°
2026-04-27 15:05 36.71733 -4.70130 37023 ft 417 kts 248°
2026-04-27 15:05 36.69741 -4.76910 37026 ft 417 kts 248°
2026-04-27 15:06 36.67743 -4.83694 37027 ft 417 kts 248°
2026-04-27 15:06 36.65742 -4.90475 37018 ft 417 kts 248°
2026-04-27 15:07 36.63737 -4.97253 37032 ft 418 kts 248°
2026-04-27 15:07 36.61722 -5.04046 37016 ft 418 kts 248°
2026-04-27 15:08 36.59703 -5.10838 37015 ft 419 kts 248°
2026-04-27 15:08 36.57679 -5.17630 37014 ft 419 kts 248°
2026-04-27 15:09 36.55650 -5.24424 37001 ft 419 kts 248°
2026-04-27 15:09 36.53617 -5.31216 36998 ft 419 kts 248°
2026-04-27 15:10 36.51581 -5.38002 37002 ft 419 kts 247°
2026-04-27 15:10 36.49191 -5.44568 36999 ft 416 kts 238°
2026-04-27 15:11 36.46232 -5.50736 36975 ft 415 kts 238°
2026-04-27 15:11 36.43280 -5.56898 36977 ft 414 kts 238°
2026-04-27 15:12 36.40353 -5.63058 36974 ft 414 kts 238°
2026-04-27 15:12 36.37433 -5.69212 36959 ft 413 kts 238°
2026-04-27 15:13 36.34516 -5.75351 36965 ft 413 kts 237°
2026-04-27 15:13 36.31598 -5.81479 36935 ft 412 kts 237°
2026-04-27 15:14 36.28684 -5.87591 36942 ft 411 kts 237°
2026-04-27 15:14 36.25770 -5.93689 36945 ft 411 kts 237°
2026-04-27 15:15 36.22739 -5.99681 36913 ft 410 kts 232°
2026-04-27 15:15 36.19276 -6.05293 36925 ft 410 kts 230°
2026-04-27 15:16 36.15772 -6.10867 36926 ft 411 kts 230°
2026-04-27 15:16 36.12288 -6.16473 36904 ft 412 kts 231°
2026-04-27 15:17 36.08810 -6.22103 36910 ft 412 kts 231°
2026-04-27 15:17 36.05323 -6.27747 36907 ft 413 kts 230°
2026-04-27 15:18 36.01826 -6.33396 36893 ft 414 kts 231°
2026-04-27 15:18 35.98324 -6.39045 36909 ft 415 kts 231°
2026-04-27 15:19 35.94814 -6.44698 36908 ft 415 kts 230°
2026-04-27 15:19 35.91302 -6.50344 36891 ft 415 kts 231°
2026-04-27 15:20 35.87786 -6.55996 36894 ft 415 kts 231°
2026-04-27 15:20 35.84270 -6.61641 36894 ft 415 kts 230°
2026-04-27 15:21 35.80749 -6.67279 36876 ft 415 kts 230°
2026-04-27 15:21 35.77226 -6.72906 36883 ft 415 kts 230°
2026-04-27 15:22 35.73701 -6.78530 36884 ft 415 kts 230°
2026-04-27 15:22 35.70175 -6.84148 36871 ft 415 kts 230°
2026-04-27 15:23 35.66666 -6.89731 36887 ft 416 kts 231°
2026-04-27 15:23 35.63125 -6.95356 36887 ft 417 kts 230°
2026-04-27 15:24 35.59570 -7.00994 36887 ft 418 kts 231°
2026-04-27 15:24 35.55998 -7.06650 36891 ft 419 kts 230°
2026-04-27 15:25 35.52414 -7.12314 36875 ft 421 kts 230°
2026-04-27 15:25 35.48820 -7.17987 36886 ft 422 kts 230°
2026-04-27 15:26 35.45209 -7.23675 36892 ft 423 kts 230°
2026-04-27 15:26 35.41586 -7.29374 36878 ft 424 kts 230°
2026-04-27 15:27 35.37953 -7.35080 36882 ft 425 kts 230°
2026-04-27 15:27 35.34312 -7.40789 36882 ft 425 kts 230°
2026-04-27 15:28 35.30673 -7.46486 36881 ft 425 kts 230°
2026-04-27 15:28 35.27031 -7.52177 36880 ft 424 kts 230°
2026-04-27 15:29 35.23391 -7.57857 36873 ft 424 kts 230°
2026-04-27 15:29 35.19756 -7.63518 36880 ft 423 kts 230°
2026-04-27 15:30 35.16119 -7.69175 36873 ft 423 kts 230°
2026-04-27 15:30 35.12483 -7.74820 36874 ft 423 kts 230°
2026-04-27 15:31 35.08845 -7.80460 36867 ft 422 kts 230°
2026-04-27 15:31 35.05209 -7.86086 36869 ft 422 kts 230°
2026-04-27 15:32 35.02181 -7.90766 36871 ft 422 kts 230°
2026-04-27 15:32 34.98538 -7.96387 36864 ft 422 kts 230°
2026-04-27 15:33 34.94892 -8.02005 36869 ft 423 kts 230°
2026-04-27 15:33 34.91241 -8.07620 36868 ft 423 kts 230°
2026-04-27 15:34 34.87582 -8.13240 36872 ft 423 kts 230°
2026-04-27 15:34 34.83919 -8.18857 36863 ft 424 kts 230°
2026-04-27 15:35 34.80249 -8.24474 36866 ft 424 kts 230°
2026-04-27 15:35 34.76575 -8.30090 36868 ft 424 kts 230°
2026-04-27 15:36 34.72894 -8.35707 36874 ft 425 kts 230°
2026-04-27 15:36 34.69210 -8.41321 36867 ft 425 kts 230°
2026-04-27 15:37 34.65520 -8.46935 36869 ft 425 kts 230°
2026-04-27 15:37 34.61823 -8.52550 36868 ft 426 kts 230°
2026-04-27 15:38 34.58123 -8.58160 36868 ft 426 kts 230°
2026-04-27 15:38 34.54417 -8.63772 36868 ft 426 kts 229°
2026-04-27 15:39 34.50708 -8.69380 36868 ft 426 kts 229°
2026-04-27 15:39 34.46995 -8.74985 36870 ft 427 kts 230°
2026-04-27 15:40 34.43060 -8.80329 36861 ft 425 kts 218°
2026-04-27 15:40 34.38551 -8.84651 36868 ft 424 kts 217°
2026-04-27 15:41 34.33898 -8.89039 36874 ft 424 kts 217°
2026-04-27 15:41 34.29280 -8.93430 36866 ft 425 kts 217°
2026-04-27 15:42 34.24641 -8.97866 36869 ft 425 kts 217°
2026-04-27 15:42 34.20032 -9.02276 36869 ft 425 kts 217°
2026-04-27 15:43 34.15399 -9.06704 36866 ft 426 kts 217°
2026-04-27 15:43 34.10745 -9.11146 36875 ft 426 kts 217°
2026-04-27 15:44 34.06092 -9.15579 36872 ft 427 kts 217°
2026-04-27 15:44 34.01428 -9.20016 36869 ft 427 kts 217°
2026-04-27 15:45 33.96752 -9.24459 36873 ft 428 kts 217°
2026-04-27 15:45 33.92076 -9.28895 36871 ft 428 kts 217°
2026-04-27 15:46 33.87398 -9.33326 36872 ft 429 kts 217°
2026-04-27 15:46 33.82709 -9.37762 36866 ft 429 kts 217°
2026-04-27 15:47 33.78007 -9.42203 36872 ft 429 kts 217°
2026-04-27 15:47 33.73308 -9.46635 36884 ft 429 kts 217°
2026-04-27 15:48 33.68611 -9.51059 36870 ft 430 kts 217°
2026-04-27 15:49 33.61541 -9.57707 36874 ft 431 kts 217°
2026-04-27 15:49 33.56843 -9.62116 36873 ft 431 kts 217°
2026-04-27 15:50 33.52097 -9.66564 36881 ft 431 kts 217°
2026-04-27 15:50 33.47368 -9.70990 36875 ft 431 kts 217°
2026-04-27 15:51 33.42637 -9.75411 36871 ft 431 kts 217°
2026-04-27 15:51 33.37908 -9.79824 36879 ft 431 kts 217°
2026-04-27 15:52 33.33176 -9.84235 36893 ft 431 kts 217°
2026-04-27 15:52 33.28439 -9.88643 36878 ft 431 kts 217°
2026-04-27 15:53 33.23711 -9.93037 36880 ft 431 kts 217°
2026-04-27 15:53 33.18980 -9.97427 36885 ft 430 kts 217°
2026-04-27 15:54 33.14253 -10.01808 36888 ft 430 kts 217°
2026-04-27 15:54 33.09527 -10.06182 36879 ft 430 kts 217°
2026-04-27 15:55 33.04807 -10.10546 36883 ft 430 kts 217°
2026-04-27 15:55 33.00093 -10.14895 36897 ft 430 kts 217°
2026-04-27 15:56 32.95381 -10.19231 36896 ft 430 kts 217°
2026-04-27 15:56 32.90625 -10.23604 36888 ft 430 kts 217°
2026-04-27 15:57 32.85892 -10.27952 36906 ft 430 kts 217°
2026-04-27 15:57 32.81187 -10.32268 36910 ft 431 kts 217°
2026-04-27 15:58 32.76403 -10.36651 36894 ft 431 kts 217°
2026-04-27 15:58 32.71633 -10.41014 36890 ft 432 kts 217°
2026-04-27 15:59 32.66873 -10.45363 36909 ft 432 kts 217°
2026-04-27 15:59 32.62139 -10.49682 36909 ft 433 kts 217°
2026-04-27 16:00 32.57335 -10.54060 36893 ft 434 kts 217°
2026-04-27 16:00 32.52542 -10.58420 36908 ft 434 kts 218°
2026-04-27 16:01 32.47804 -10.62852 36919 ft 433 kts 218°
2026-04-27 16:01 32.42995 -10.67165 36915 ft 434 kts 217°
2026-04-27 16:02 32.38138 -10.71507 36907 ft 435 kts 218°
2026-04-27 16:02 32.33332 -10.75836 36917 ft 435 kts 218°
2026-04-27 16:03 32.28548 -10.80158 36922 ft 436 kts 218°
2026-04-27 16:03 32.23734 -10.84503 36914 ft 436 kts 218°
2026-04-27 16:04 32.18903 -10.88857 36917 ft 437 kts 218°
2026-04-27 16:04 32.14073 -10.93204 36925 ft 437 kts 218°
2026-04-27 16:05 32.09227 -10.97559 36930 ft 437 kts 218°
2026-04-27 16:05 32.04357 -11.01929 36924 ft 437 kts 218°
2026-04-27 16:06 31.99547 -11.06240 36920 ft 438 kts 218°
2026-04-27 16:06 31.94711 -11.10569 36928 ft 437 kts 218°
2026-04-27 16:07 31.89871 -11.14895 36933 ft 437 kts 218°
2026-04-27 16:07 31.85017 -11.19229 36929 ft 437 kts 218°
2026-04-27 16:08 31.80172 -11.23550 36928 ft 437 kts 218°
2026-04-27 16:08 31.75331 -11.27859 36939 ft 436 kts 218°
2026-04-27 16:09 31.70491 -11.32169 36949 ft 436 kts 218°
2026-04-27 16:09 31.63240 -11.38624 36946 ft 436 kts 219°
2026-04-27 16:10 31.53549 -11.47233 36938 ft 437 kts 219°
2026-04-27 16:11 31.46270 -11.53684 36940 ft 438 kts 219°
2026-04-27 16:12 31.38983 -11.60128 36943 ft 438 kts 219°
2026-04-27 16:13 31.31669 -11.66583 36951 ft 439 kts 219°
2026-04-27 16:13 31.24356 -11.73025 36949 ft 439 kts 219°
2026-04-27 16:14 31.14633 -11.81570 36948 ft 438 kts 219°
2026-04-27 16:15 31.04883 -11.90116 36962 ft 438 kts 219°
2026-04-27 16:16 30.95974 -11.97906 36950 ft 437 kts 218°
2026-04-27 16:17 30.86210 -12.06422 36964 ft 437 kts 219°
2026-04-27 16:18 30.76507 -12.14863 36964 ft 437 kts 218°
2026-04-27 16:19 30.71648 -12.19081 36972 ft 436 kts 219°
2026-04-27 16:20 30.61912 -12.27520 36970 ft 437 kts 219°
2026-04-27 16:21 30.54597 -12.33846 36975 ft 437 kts 219°
2026-04-27 16:22 30.44834 -12.42254 36974 ft 437 kts 218°
2026-04-27 16:22 30.37513 -12.48531 36980 ft 437 kts 218°
2026-04-27 16:23 30.30182 -12.54810 36980 ft 437 kts 219°
2026-04-27 16:24 30.25292 -12.58993 36981 ft 437 kts 219°
2026-04-27 16:25 30.15508 -12.67345 36981 ft 437 kts 219°
2026-04-27 16:26 30.05847 -12.75832 36987 ft 436 kts 221°
2026-04-27 16:27 29.96502 -12.84752 36987 ft 436 kts 221°
2026-04-27 16:28 29.84753 -12.95799 36992 ft 435 kts 221°
2026-04-27 16:29 29.73017 -13.06773 36991 ft 435 kts 221°
2026-04-27 16:30 29.63633 -13.15526 36993 ft 434 kts 222°
2026-04-27 16:31 29.51998 -13.26348 36997 ft 433 kts 222°
2026-04-27 16:32 29.44988 -13.32851 36997 ft 432 kts 222°
2026-04-27 16:33 29.37976 -13.39345 37004 ft 431 kts 222°
2026-04-27 16:33 29.33306 -13.43664 37004 ft 431 kts 222°
2026-04-27 16:34 29.28647 -13.47967 37005 ft 431 kts 222°
2026-04-27 16:34 29.23985 -13.52267 36994 ft 430 kts 223°
2026-04-27 16:35 29.19319 -13.56566 36994 ft 430 kts 223°
2026-04-27 16:36 29.12324 -13.63002 36979 ft 430 kts 223°
2026-04-27 16:36 29.07655 -13.67291 36993 ft 430 kts 223°
2026-04-27 16:37 29.03061 -13.71506 36997 ft 430 kts 223°
2026-04-27 16:37 28.98321 -13.75850 36993 ft 431 kts 223°
2026-04-27 16:38 28.93645 -13.80130 37012 ft 431 kts 223°
2026-04-27 16:38 28.88959 -13.84414 37000 ft 431 kts 223°
2026-04-27 16:39 28.84276 -13.88690 36995 ft 431 kts 224°
2026-04-27 16:39 28.79587 -13.92965 36995 ft 431 kts 224°
2026-04-27 16:40 28.74915 -13.97222 37008 ft 430 kts 224°
2026-04-27 16:40 28.70244 -14.01472 37008 ft 429 kts 224°
2026-04-27 16:41 28.65576 -14.05715 37008 ft 429 kts 224°
2026-04-27 16:41 28.60910 -14.09950 37017 ft 429 kts 224°
2026-04-27 16:42 28.56255 -14.14171 37016 ft 428 kts 224°
2026-04-27 16:42 28.51593 -14.18393 37019 ft 428 kts 224°
2026-04-27 16:43 28.46939 -14.22603 37012 ft 427 kts 225°
2026-04-27 16:43 28.42321 -14.26775 37016 ft 426 kts 225°
2026-04-27 16:44 28.37690 -14.30955 37023 ft 426 kts 225°
2026-04-27 16:44 28.33013 -14.35172 37020 ft 426 kts 225°
2026-04-27 16:45 28.28376 -14.39348 37020 ft 425 kts 225°
2026-04-27 16:45 28.23774 -14.43487 37021 ft 425 kts 225°
2026-04-27 16:46 28.19143 -14.47648 37021 ft 425 kts 225°
2026-04-27 16:46 28.14474 -14.51838 37014 ft 425 kts 225°
2026-04-27 16:47 28.09837 -14.55995 36609 ft 422 kts 225°
2026-04-27 16:47 28.07554 -14.58038 36216 ft 417 kts 226°
2026-04-27 16:47 28.05291 -14.60063 35898 ft 412 kts 226°
2026-04-27 16:47 28.03068 -14.62063 35503 ft 407 kts 229°
2026-04-27 16:48 28.01181 -14.64333 35126 ft 391 kts 242°
2026-04-27 16:48 27.99792 -14.66921 34778 ft 380 kts 251°
2026-04-27 16:48 27.98860 -14.69664 34390 ft 369 kts 262°
2026-04-27 16:49 27.97664 -14.75275 33595 ft 365 kts 262°
2026-04-27 16:49 27.97074 -14.78096 33204 ft 362 kts 262°
2026-04-27 16:49 27.96501 -14.80810 32829 ft 360 kts 262°
2026-04-27 16:49 27.95914 -14.83563 32477 ft 358 kts 262°
2026-04-27 16:50 27.95335 -14.86259 32122 ft 355 kts 261°
2026-04-27 16:50 27.94749 -14.88971 31761 ft 353 kts 261°
2026-04-27 16:50 27.94163 -14.91676 31431 ft 352 kts 261°
2026-04-27 16:50 27.93583 -14.94348 31033 ft 350 kts 262°
2026-04-27 16:51 27.93002 -14.97009 30746 ft 346 kts 262°
2026-04-27 16:51 27.92430 -14.99633 30408 ft 344 kts 262°
2026-04-27 16:51 27.91850 -15.02294 30084 ft 342 kts 262°
2026-04-27 16:51 27.91285 -15.04879 29701 ft 340 kts 262°
2026-04-27 16:52 27.90720 -15.07464 29327 ft 338 kts 262°
2026-04-27 16:52 27.90152 -15.10062 28993 ft 334 kts 262°
2026-04-27 16:52 27.89602 -15.12570 28645 ft 332 kts 262°
2026-04-27 16:52 27.89050 -15.15092 28304 ft 329 kts 262°
2026-04-27 16:53 27.88497 -15.17614 27967 ft 327 kts 261°
2026-04-27 16:53 27.87958 -15.20069 27636 ft 326 kts 261°
2026-04-27 16:53 27.87411 -15.22561 27316 ft 327 kts 261°
2026-04-27 16:53 27.86856 -15.25098 26992 ft 337 kts 261°
2026-04-27 16:54 27.86286 -15.27704 26651 ft 347 kts 261°
2026-04-27 16:54 27.85699 -15.30363 26272 ft 346 kts 260°
2026-04-27 16:54 27.85117 -15.32990 25917 ft 344 kts 260°
2026-04-27 16:54 27.84536 -15.35614 25556 ft 343 kts 260°
2026-04-27 16:55 27.83966 -15.38190 25217 ft 341 kts 260°
2026-04-27 16:55 27.83384 -15.40818 24867 ft 340 kts 259°
2026-04-27 16:55 27.82893 -15.43422 24501 ft 336 kts 269°
2026-04-27 16:55 27.82980 -15.45952 24075 ft 334 kts 278°
2026-04-27 16:56 27.83223 -15.48568 23694 ft 335 kts 278°
2026-04-27 16:56 27.83479 -15.51176 23299 ft 334 kts 278°
2026-04-27 16:56 27.83730 -15.53773 22924 ft 332 kts 278°
2026-04-27 16:56 27.83974 -15.56368 22576 ft 329 kts 278°
2026-04-27 16:57 27.84209 -15.58934 22233 ft 327 kts 278°
2026-04-27 16:57 27.84437 -15.61483 21900 ft 325 kts 278°
2026-04-27 16:57 27.84661 -15.64023 21560 ft 324 kts 278°
2026-04-27 16:57 27.84881 -15.66543 21231 ft 322 kts 277°
2026-04-27 16:58 27.85099 -15.69062 20901 ft 321 kts 277°
2026-04-27 16:58 27.85242 -15.70721 20692 ft 320 kts 277°
2026-04-27 16:58 27.85457 -15.73214 20362 ft 319 kts 277°
2026-04-27 16:58 27.85671 -15.75702 20043 ft 317 kts 277°
2026-04-27 16:59 27.85883 -15.78179 19720 ft 316 kts 277°
2026-04-27 16:59 27.86094 -15.80652 19410 ft 315 kts 277°
2026-04-27 16:59 27.86304 -15.83116 19086 ft 315 kts 277°
2026-04-27 16:59 27.86514 -15.85580 18774 ft 314 kts 277°
2026-04-27 17:00 27.86862 -15.89693 18218 ft 314 kts 277°
2026-04-27 17:00 27.87136 -15.92933 17761 ft 312 kts 277°
2026-04-27 17:00 27.87341 -15.95372 17429 ft 311 kts 277°
2026-04-27 17:01 27.87545 -15.97799 17105 ft 309 kts 277°
2026-04-27 17:01 27.87748 -16.00211 16790 ft 308 kts 277°
2026-04-27 17:01 27.87949 -16.02613 16476 ft 306 kts 277°
2026-04-27 17:01 27.88148 -16.04998 16171 ft 304 kts 277°
2026-04-27 17:02 27.88346 -16.07370 15868 ft 303 kts 277°
2026-04-27 17:02 27.88542 -16.09729 15572 ft 301 kts 277°
2026-04-27 17:02 27.88737 -16.12078 15260 ft 300 kts 277°
2026-04-27 17:02 27.88931 -16.14415 14967 ft 298 kts 277°
2026-04-27 17:03 27.89123 -16.16743 14671 ft 296 kts 278°
2026-04-27 17:03 27.89315 -16.19057 14355 ft 296 kts 277°
2026-04-27 17:03 27.89506 -16.21370 14069 ft 295 kts 277°
2026-04-27 17:03 27.89695 -16.23673 13763 ft 294 kts 277°
2026-04-27 17:04 27.89859 -16.25976 13418 ft 294 kts 271°
2026-04-27 17:04 27.89448 -16.28231 13145 ft 295 kts 251°
2026-04-27 17:04 27.88648 -16.30354 12841 ft 294 kts 249°
2026-04-27 17:04 27.87833 -16.32469 12531 ft 293 kts 249°
2026-04-27 17:05 27.87031 -16.34579 12228 ft 292 kts 249°
2026-04-27 17:05 27.86237 -16.36680 11974 ft 289 kts 249°
2026-04-27 17:05 27.85454 -16.38761 11706 ft 287 kts 249°
2026-04-27 17:05 27.84675 -16.40836 11417 ft 286 kts 249°
2026-04-27 17:06 27.83900 -16.42905 11127 ft 286 kts 249°
2026-04-27 17:06 27.83126 -16.44971 10829 ft 285 kts 249°
2026-04-27 17:06 27.82354 -16.47030 10543 ft 285 kts 249°
2026-04-27 17:06 27.81581 -16.49090 10248 ft 285 kts 249°
2026-04-27 17:07 27.80817 -16.51122 10109 ft 279 kts 249°
2026-04-27 17:07 27.80063 -16.53127 9824 ft 279 kts 249°
2026-04-27 17:07 27.79297 -16.55165 9449 ft 281 kts 249°
2026-04-27 17:07 27.78537 -16.57187 9159 ft 280 kts 249°
2026-04-27 17:08 27.77782 -16.59193 8872 ft 279 kts 249°
2026-04-27 17:08 27.77024 -16.61207 8592 ft 278 kts 249°
2026-04-27 17:08 27.76269 -16.63212 8391 ft 274 kts 249°
2026-04-27 17:08 27.75531 -16.65167 8276 ft 267 kts 249°
2026-04-27 17:09 27.74815 -16.67064 8138 ft 260 kts 249°
2026-04-27 17:09 27.74359 -16.68995 8015 ft 250 kts 274°
2026-04-27 17:09 27.74781 -16.70827 7841 ft 240 kts 300°
2026-04-27 17:09 27.75762 -16.72318 7630 ft 236 kts 316°
2026-04-27 17:10 27.76933 -16.73568 7409 ft 235 kts 319°
2026-04-27 17:10 27.78148 -16.74803 7172 ft 234 kts 319°
2026-04-27 17:10 27.79354 -16.76034 6936 ft 234 kts 319°
2026-04-27 17:10 27.80557 -16.77277 6689 ft 234 kts 318°
2026-04-27 17:11 27.81755 -16.78525 6430 ft 235 kts 317°
2026-04-27 17:11 27.84160 -16.81048 5884 ft 236 kts 318°
2026-04-27 17:11 27.85357 -16.82307 5637 ft 235 kts 317°
2026-04-27 17:12 27.88195 -16.84019 5145 ft 233 kts 338°
2026-04-27 17:12 27.89699 -16.84711 4899 ft 233 kts 338°
2026-04-27 17:12 27.91210 -16.85389 4628 ft 233 kts 345°
2026-04-27 17:13 27.92807 -16.85418 4379 ft 232 kts 16°
2026-04-27 17:13 27.94179 -16.84524 4161 ft 231 kts 43°
2026-04-27 17:13 27.95074 -16.83029 3987 ft 229 kts 63°
2026-04-27 17:13 27.95725 -16.81418 3879 ft 223 kts 63°
2026-04-27 17:14 27.96362 -16.79846 3726 ft 219 kts 63°
2026-04-27 17:14 27.97013 -16.78281 3508 ft 216 kts 60°
2026-04-27 17:14 27.97648 -16.76781 3428 ft 208 kts 63°
2026-04-27 17:14 27.98194 -16.75299 3230 ft 203 kts 66°
2026-04-27 17:15 27.98705 -16.73832 2990 ft 199 kts 65°
2026-04-27 17:15 27.99204 -16.72388 2731 ft 196 kts 64°
2026-04-27 17:15 27.99692 -16.70976 2465 ft 192 kts 65°
2026-04-27 17:15 28.00181 -16.69565 2199 ft 190 kts 66°
2026-04-27 17:16 28.00657 -16.68191 1974 ft 186 kts 68°
2026-04-27 17:16 28.01125 -16.66839 1712 ft 183 kts 68°
2026-04-27 17:16 28.01585 -16.65512 1459 ft 178 kts 69°
2026-04-27 17:16 28.02016 -16.64267 1253 ft 161 kts 69°
2026-04-27 17:17 28.02406 -16.63144 1009 ft 146 kts 69°
2026-04-27 17:17 28.02778 -16.62084 829 ft 143 kts 69°
2026-04-27 17:17 28.03135 -16.61038 653 ft 143 kts 70°
2026-04-27 17:18 28.03877 -16.58895 271 ft 148 kts 71°
2026-04-27 17:18 28.04234 -16.57855 199 ft 127 kts 70°
2026-04-27 17:18 28.04504 -16.57082 200 ft 83 kts 68°
2026-04-27 17:18 28.04663 -16.56639 205 ft 44 kts 63°
2026-04-27 17:19 28.04843 -16.56412 213 ft 29 kts 43°
2026-04-27 17:19 28.04936 -16.56383 220 ft 12 kts 286°
2026-04-27 17:19 28.04913 -16.56470 218 ft 11 kts 248°
2026-04-27 17:19 28.04884 -16.56554 219 ft 12 kts 249°
2026-04-27 17:20 28.04854 -16.56640 221 ft 12 kts 249°
2026-04-27 17:20 28.04818 -16.56747 223 ft 17 kts 249°
2026-04-27 17:20 28.04771 -16.56884 218 ft 20 kts 249°
2026-04-27 17:20 28.04719 -16.57031 222 ft 20 kts 247°
2026-04-27 17:21 28.04663 -16.57171 222 ft 19 kts 241°
2026-04-27 17:21 28.04611 -16.57308 222 ft 19 kts 250°
2026-04-27 17:21 28.04565 -16.57442 222 ft 18 kts 248°
2026-04-27 17:21 28.04555 -16.57527 223 ft 8 kts 321°
2026-04-27 17:22 28.04593 -16.57531 222 ft 3 kts 334°
2026-04-27 17:22 28.04602 -16.57536 222 ft 0 kts 337°